Weather past 2 weeks in Mamoutzou, Mayotte

Now
82 °F

Broken clouds.


Feels Like: 91 °F
Forecast: 82 / 85 °F
Wind: 8 mph from Northwest

Location: Dzaoudzi / Pamanzi Mayotte

Current Time: Dec 28, 2014 at 5:32:33 PM

Latest Report: Dec 28, 2014 at 5:00 PM


Visibility: N/A

Pressure: 29.86 "Hg

Humidity: 84%

Dew point: 77 °F

Location of MamoutzouLocation

Historic Weather in Mamoutzou — Graph

°F

Mamoutzou temperature yesterday

Maximum temperature yesterday: 90 °F (at 9:30 AM)
Minimum temperature yesterday: 77 °F (at 11:30 AM)
Average temperature yesterday: 82 °F

Past Weeks' High & Low Weather Summary

 TemperatureHumidityPressure
High91 °F (Dec 26, 12:00 PM)94% (Dec 22, 3:30 AM)29.98 "Hg (Dec 22, 3:30 AM)
Low75 °F (Dec 28, 6:47 AM)49% (Dec 26, 12:00 PM)29.77 "Hg (Dec 22, 3:00 PM)
Average84 °F76%29.87 "Hg
* Reported Dec 13 4:00 PM — Dec 28 4:30 PM, Mamoutzou, Weather by CustomWeather, © 2014

Note: Actual official high and low records may vary slightly from our data, if they occured in-between our weather recording intervals... More about our weather records

Advertising

Mamoutzou weather history for previous 24 hours

 ConditionsComfort  
Time TempWeatherWind HumidityBarometerVisibility
4:30 PM
Dec 28
84 °FBroken clouds.6 mph74%29.83 "HgN/A
4:04 PM84 °FBroken clouds.3 mph79%29.83 "HgN/A
3:30 PM84 °FBroken clouds.6 mph74%29.83 "HgN/A
3:00 PM84 °FBroken clouds.8 mph79%29.83 "HgN/A
2:30 PM82 °FBroken clouds.6 mph79%29.83 "HgN/A
2:00 PM82 °FBroken clouds.3 mph79%29.83 "HgN/A
1:30 PM82 °FBroken clouds.7 mph84%29.83 "HgN/A
1:00 PM82 °FBroken clouds.8 mph79%29.86 "HgN/A
12:30 PM82 °FBroken clouds.5 mph79%29.86 "HgN/A
12:00 PM81 °FBroken clouds.1 mph84%29.86 "HgN/A
11:30 AM79 °FBroken clouds.1 mph89%29.86 "HgN/A
11:00 AM77 °FBroken clouds.2 mph94%29.86 "HgN/A
10:30 AM77 °FSprinkles. Broken clouds.3 mph89%29.89 "HgN/A
10:00 AM77 °FSprinkles. Partly sunny.No wind89%29.92 "Hg2 mi
9:30 AM79 °FSprinkles. Partly sunny.5 mph89%29.92 "Hg2 mi
9:00 AM77 °FScattered showers. Broken clouds.9 mph94%29.92 "Hg3 mi
8:30 AM79 °FScattered showers. Broken clouds.9 mph84%29.92 "Hg2 mi
8:00 AM81 °FScattered showers. Partly sunny.12 mph79%29.92 "Hg6 mi
7:30 AM79 °FScattered showers. Broken clouds.6 mph84%29.89 "Hg6 mi
7:00 AM77 °FScattered showers. Broken clouds.6 mph89%29.89 "Hg6 mi
6:47 AM75 °FScattered showers. Broken clouds.5 mph89%29.89 "Hg6 mi
6:00 AM77 °FThunderstorms. Broken clouds.15 mph83%29.86 "Hg3 mi
5:30 AM79 °FThundershowers. Partly cloudy.14 mph84%29.86 "Hg3 mi
5:00 AM79 °FThundershowers. Partly cloudy.6 mph89%29.83 "Hg6 mi
4:30 AM79 °FRain. Passing clouds.14 mph89%29.83 "HgN/A
4:00 AM79 °FOvercast.No wind94%29.83 "HgN/A
3:30 AM79 °FMostly cloudy.No wind89%29.83 "HgN/A
3:00 AM79 °FMostly cloudy.2 mph89%29.83 "HgN/A
2:30 AM79 °FMostly cloudy.No wind89%29.83 "HgN/A
2:00 AM79 °FMostly cloudy.No wind89%29.80 "HgN/A
1:30 AM79 °FWarm.2 mph89%29.80 "HgN/A
1:00 AM79 °FWarm.2 mph89%29.80 "HgN/A
12:30 AM79 °FWarm.No wind89%29.83 "HgN/A
12:00 AM79 °FWarm.No wind89%29.83 "HgN/A
11:30 PM
Dec 27
81 °FWarm.No wind84%29.86 "HgN/A
11:00 PM81 °FWarm.1 mph84%29.86 "HgN/A
10:30 PM81 °FWarm.3 mph84%29.86 "HgN/A
10:00 PM81 °FPassing clouds.5 mph89%29.86 "HgN/A
9:30 PM81 °FMostly cloudy.3 mph84%29.86 "HgN/A
9:00 PM81 °FWarm.6 mph89%29.83 "HgN/A
8:30 PM81 °FPassing clouds.1 mph84%29.83 "HgN/A
8:00 PM81 °FWarm.8 mph89%29.83 "HgN/A
7:30 PM81 °FPassing clouds.7 mph79%29.83 "HgN/A
7:00 PM81 °FPassing clouds.12 mph79%29.83 "HgN/A
6:30 PM82 °FPassing clouds.12 mph74%29.83 "HgN/A
6:00 PM82 °FBroken clouds.9 mph74%29.83 "HgN/A
5:30 PM84 °FBroken clouds.8 mph79%29.83 "HgN/A
5:00 PM84 °FBroken clouds.8 mph79%29.80 "HgN/A
Weather by CustomWeather, © 2014

See weather overviewHow to use our weather pages